Hourly Data Report for May 15, 2015

All times are specified in Local Standard Time (LST). Add 1 hour to adjust for Daylight Saving Time where and when it is observed.

CHARLOTTETOWN A
PRINCE EDWARD ISLAND

46°17'21.000" N
63°07'09.000" W
48.50 m
8300301
71706
YYG

Download Data

Hourly Data (May 2015)
Hourly Data Report for May 15, 2015
Temp Definition
°C
Dew Point Temp Definition
°C
Rel Hum Definition
%
Wind Dir Definition
10's deg

Wind Spd Definition
km/h
Visibility Definition
km
Stn Press Definition
kPa
Hmdx Definition


Wind Chill Definition


Weather Definition


TIME
00:00 Legend Double Dagger 7.6 0.6 61 23 13 24.1 101.52     LegendNANA
01:00 Legend Double Dagger 7.4 0.8 63 24 18 24.1 101.51     LegendNANA
02:00 Legend Double Dagger 6.5 1.4 70 24 18 24.1 101.49     Clear
03:00 Legend Double Dagger 5.3 1.2 75 17 7 24.1 101.51     LegendNANA
04:00 Legend Double Dagger 5.4 1.5 76 23 10 24.1 101.50     LegendNANA
05:00 Legend Double Dagger 5.3 2.0 79 24 10 24.1 101.52     Clear
06:00 Legend Double Dagger 6.4 2.5 76 21 5 24.1 101.57     LegendNANA
07:00 Legend Double Dagger 9.2 3.0 65 24 14 24.1 101.60     LegendNANA
08:00 Legend Double Dagger 13.0 2.9 50 22 15 24.1 101.64     Clear
09:00 Legend Double Dagger 16.3 2.4 39 22 14 24.1 101.64     LegendNANA
10:00 Legend Double Dagger 18.5 4.0 38 22 12 24.1 101.62     LegendNANA
11:00 Legend Double Dagger 20.2 1.8 29 23 16 24.1 101.59     Clear
12:00 Legend Double Dagger 20.4 1.9 29 24 20 24.1 101.55     LegendNANA
13:00 Legend Double Dagger 21.3 3.2 30 24 13 24.1 101.51     LegendNANA
14:00 Legend Double Dagger 21.5 0.3 24 29 24 24.1 101.49     Mainly Clear
15:00 Legend Double Dagger 21.5 2.9 29 24 9 24.1 101.45     LegendNANA
16:00 Legend Double Dagger 21.4 3.3 30 25 9 24.1 101.46     LegendNANA
17:00 Legend Double Dagger 21.1 2.1 28 22 16 24.1 101.46     Mainly Clear
18:00 Legend Double Dagger 20.6 2.6 30 23 10 24.1 101.48     LegendNANA
19:00 Legend Double Dagger 19.0 2.1 32 20 10 24.1 101.50     LegendNANA
20:00 Legend Double Dagger 15.9 3.8 44 25 7 24.1 101.55     Mostly Cloudy
21:00 Legend Double Dagger 12.5 4.0 56 12 9 24.1 101.62     LegendNANA
22:00 Legend Double Dagger 12.4 4.2 57 16 5 24.1 101.64     LegendNANA
23:00 Legend Double Dagger 11.9 3.7 57 21 11 24.1 101.66     Mostly Cloudy

Notes on Data Quality.

Legend

  • E = Estimated
  • M = Missing
  • NA = Not Available
  • ‡ = Partner data that is not subject to review by the National Climate Archives
Date modified: